Current Weather Conditions: station 63103

sailwx.info

Wind from 040 at 20 knots

Wave height 3.4 meters (11 feet), 7 second period

Air temperature 6.6° C
Dewpoint 2.2° C

Last reported at 2017-Feb-28 15:00 UTC.
Time now 2017-Feb-28 17:21 UTC

Location: N 61°12' E 001°06'.
View on Google Maps.

See reports from other nearby stations

  
Tides and Currents Weather Stations Pressure Air Temp Water Temp Dewpoint Dewpoint Depression Visibility Wind Speed Wind Dir Waves Ship Positions
date/time (UTC)wind fromknots sea level pressurealtimeterstation pressurevisibilityair tempwater tempwave heightnotes
2017-Feb-28 15:00 040 20 6.6 3.4
2017-Feb-28 13:00 020 21 6.9 3.5
2017-Feb-28 12:00 020 26 7.9 3.5
2017-Feb-28 11:00 020 25 7.7 3.4
2017-Feb-28 10:00 020 22 7.4 3.0
2017-Feb-28 09:00 020 22 7.0 3.1
2017-Feb-28 08:00 030 21 7.0 2.9
2017-Feb-28 07:00 030 22 7.2 3.0
2017-Feb-28 06:00 030 21 7.2 3.2
2017-Feb-28 05:00 040 22 7.2 3.0
2017-Feb-28 04:00 040 19 6.8 3.1
2017-Feb-28 03:00 050 13 6.5 3.1
2017-Feb-28 02:00 050 9 5.6 3.3
2017-Feb-28 01:00 050 12 7.0 3.2
2017-Feb-28 00:00 070 7 6.6 3.3
2017-Feb-27 23:00 070 5 6.2 3.4
2017-Feb-27 22:00 110 4 6.1 3.2
2017-Feb-27 21:00 170 5 5.9 3.9
2017-Feb-27 20:00 180 9 5.9 4.0
2017-Feb-27 19:00 190 11 6.0 4.2
2017-Feb-27 18:00 200 13 5.9 4.5
2017-Feb-27 17:00 200 17 5.9 4.2
2017-Feb-27 16:00 210 20 6.0 4.6
2017-Feb-27 15:00 220 21 6.3 4.8
2017-Feb-27 14:00 210 21 6.3 4.7
2017-Feb-27 13:00 210 26 6.0 4.8
2017-Feb-27 12:00 210 27 6.2 5.0
2017-Feb-27 11:00 190 25 5.3 5.2
2017-Feb-27 10:00 210 28 6.4 5.1
2017-Feb-27 09:00 220 22 4.8 5.6
2017-Feb-27 08:00 210 34 5.5 5.4
2017-Feb-27 07:00 210 39 6.4 5.4
2017-Feb-27 06:00 220 35 6.3 5.7
2017-Feb-27 05:00 210 41 6.5 5.8
2017-Feb-27 04:00 210 39 7.3 5.1
2017-Feb-27 03:00 220 41 6.6 4.6
2017-Feb-27 02:00 210 41 6.8 4.2
2017-Feb-27 01:00 200 34 7.3 3.8
2017-Feb-27 00:00 180 34 7.8 3.7
2017-Feb-26 23:00 130 29 6.8 3.4
2017-Feb-26 22:00 140 21 6.8 3.3
2017-Feb-26 21:00 150 20 7.2 3.6
2017-Feb-26 20:00 170 21 7.2 3.5
2017-Feb-26 19:00 170 21 6.8 3.6
2017-Feb-26 18:00 180 25 6.6 3.7
2017-Feb-26 17:00 160 20 6.3 3.8